Time,TemperatureF,DewpointF,PressureIn,WindDirection,WindDirectionDegrees,WindSpeedMPH,WindSpeedGustMPH,Humidity,HourlyPrecipIn,Conditions,Clouds,dailyrainin,SoftwareType,DateUTC
2013-06-13 00:00:00,77.8,71.9,30.03,South,180,0.0,0.0,82,0.00,,,0.00,VWS V14.00,2013-06-13 04:00:00,
2013-06-13 00:30:00,78.6,71.6,30.03,South,180,0.0,2.0,79,0.00,,,0.00,VWS V14.00,2013-06-13 04:30:00,
2013-06-13 01:00:00,78.0,71.7,30.01,South,180,0.0,0.0,81,0.00,,,0.00,VWS V14.00,2013-06-13 05:00:00,
2013-06-13 01:30:00,77.0,71.4,30.01,South,180,0.0,0.0,83,0.00,,,0.00,VWS V14.00,2013-06-13 05:30:00,
2013-06-13 02:00:00,76.3,71.5,30.00,South,180,0.0,0.0,85,0.00,,,0.00,VWS V14.00,2013-06-13 06:00:00,
2013-06-13 02:30:00,75.1,71.0,30.00,South,180,0.0,0.0,87,0.00,,,0.00,VWS V14.00,2013-06-13 06:30:00,
2013-06-13 03:00:00,74.6,71.2,29.99,South,180,0.0,0.0,89,0.00,,,0.00,VWS V14.00,2013-06-13 07:00:00,
2013-06-13 03:30:00,74.2,71.1,29.99,South,180,0.0,0.0,90,0.00,,,0.00,VWS V14.00,2013-06-13 07:30:00,
2013-06-13 04:00:00,73.7,70.9,29.99,South,180,0.0,0.0,91,0.00,,,0.00,VWS V14.00,2013-06-13 08:00:00,
2013-06-13 04:30:00,73.5,71.0,29.98,South,180,0.0,0.0,92,0.00,,,0.00,VWS V14.00,2013-06-13 08:30:00,
2013-06-13 05:00:00,73.9,71.4,29.98,South,180,0.0,0.0,92,0.00,,,0.00,VWS V14.00,2013-06-13 09:00:00,
2013-06-13 05:30:00,73.8,71.3,29.98,South,180,0.0,0.0,92,0.00,,,0.00,VWS V14.00,2013-06-13 09:30:00,
2013-06-13 06:00:00,73.5,71.0,29.98,South,180,0.0,0.0,92,0.00,,,0.00,VWS V14.00,2013-06-13 10:00:00,
2013-06-13 06:30:00,73.0,70.5,29.99,South,180,0.0,0.0,92,0.00,,,0.00,VWS V14.00,2013-06-13 10:30:00,
2013-06-13 07:00:00,73.5,71.0,29.98,South,180,0.0,0.0,92,0.00,,,0.00,VWS V14.00,2013-06-13 11:00:00,
2013-06-13 07:11:00,73.8,71.7,30.00,SSW,208,0.0,0.0,93,0.00,,,0.00,VWS V14.00,2013-06-13 11:11:00,
2013-06-13 07:16:00,74.0,71.8,30.00,SSW,209,0.0,0.0,93,0.00,,,0.00,VWS V14.00,2013-06-13 11:16:00,
2013-06-13 07:21:00,74.2,72.1,30.00,SSW,209,0.0,1.0,93,0.00,,,0.00,VWS V14.00,2013-06-13 11:21:00,
2013-06-13 07:27:00,74.4,71.9,30.01,SSW,204,0.0,1.0,92,0.00,,,0.00,VWS V14.00,2013-06-13 11:27:00,
2013-06-13 07:30:00,73.0,70.5,29.99,South,180,0.0,0.0,92,0.00,,,0.00,VWS V14.00,2013-06-13 11:30:00,
2013-06-13 07:32:00,74.5,72.0,30.01,SSW,203,0.0,0.0,92,0.00,,,0.00,VWS V14.00,2013-06-13 11:32:00,
2013-06-13 07:37:00,74.7,72.2,30.01,SSW,204,0.0,0.0,92,0.00,,,0.00,VWS V14.00,2013-06-13 11:37:00,
2013-06-13 07:42:00,74.8,72.0,30.01,SSW,204,0.0,0.0,91,0.00,,,0.00,VWS V14.00,2013-06-13 11:42:00,
2013-06-13 07:47:00,74.9,72.1,30.02,SSW,204,0.0,0.0,91,0.00,,,0.00,VWS V14.00,2013-06-13 11:47:00,
2013-06-13 07:52:00,75.1,72.3,30.02,SSW,203,0.0,0.0,91,0.00,,,0.00,VWS V14.00,2013-06-13 11:52:00,
2013-06-13 07:57:00,75.4,72.6,30.02,SSW,204,0.0,1.0,91,0.00,,,0.00,VWS V14.00,2013-06-13 11:57:00,
2013-06-13 08:02:00,75.6,72.8,30.02,SSW,204,0.0,0.0,91,0.00,,,0.00,VWS V14.00,2013-06-13 12:02:00,
2013-06-13 08:07:00,75.8,72.7,30.02,SSW,204,0.0,1.0,90,0.00,,,0.00,VWS V14.00,2013-06-13 12:07:00,
2013-06-13 08:12:00,76.1,73.0,30.03,SSW,203,1.0,1.0,90,0.00,,,0.00,VWS V14.00,2013-06-13 12:12:00,
2013-06-13 08:17:00,76.4,73.2,30.03,SW,221,0.0,5.0,90,0.00,,,0.00,VWS V14.00,2013-06-13 12:17:00,
2013-06-13 08:22:00,76.7,73.2,30.03,SW,221,0.0,5.0,89,0.00,,,0.00,VWS V14.00,2013-06-13 12:22:00,
2013-06-13 08:27:00,77.1,73.6,30.03,WSW,248,0.0,5.0,89,0.00,,,0.00,VWS V14.00,2013-06-13 12:27:00,
2013-06-13 08:30:00,74.5,72.0,30.01,SSW,204,0.0,1.0,92,0.00,,,0.00,VWS V14.00,2013-06-13 12:30:00,
2013-06-13 08:32:00,77.4,73.9,30.03,SW,232,0.0,1.0,89,0.00,,,0.00,VWS V14.00,2013-06-13 12:32:00,
2013-06-13 08:37:00,77.6,73.8,30.03,SW,229,0.0,5.0,88,0.00,,,0.00,VWS V14.00,2013-06-13 12:37:00,
2013-06-13 08:42:00,77.9,74.1,30.03,SW,230,0.0,5.0,88,0.00,,,0.00,VWS V14.00,2013-06-13 12:42:00,
2013-06-13 08:47:00,78.2,74.4,30.03,SW,227,0.0,5.0,88,0.00,,,0.00,VWS V14.00,2013-06-13 12:47:00,
2013-06-13 08:52:00,78.5,74.7,30.03,West,264,0.0,5.0,88,0.00,,,0.00,VWS V14.00,2013-06-13 12:52:00,
2013-06-13 08:57:00,78.7,74.8,30.03,SSW,207,0.0,5.0,88,0.00,,,0.00,VWS V14.00,2013-06-13 12:57:00,
2013-06-13 09:00:00,75.6,72.8,30.02,SSW,204,0.0,1.0,91,0.00,,,0.00,VWS V14.00,2013-06-13 13:00:00,
2013-06-13 09:02:00,79.1,75.2,30.03,SW,232,0.0,1.0,88,0.00,,,0.00,VWS V14.00,2013-06-13 13:02:00,
2013-06-13 09:07:00,79.5,75.3,30.03,SW,232,0.0,1.0,87,0.00,,,0.00,VWS V14.00,2013-06-13 13:07:00,
2013-06-13 09:12:00,80.0,75.8,30.03,WNW,290,0.0,1.0,87,0.00,,,0.00,VWS V14.00,2013-06-13 13:12:00,
2013-06-13 09:17:00,80.2,75.6,30.03,SW,228,0.0,4.0,86,0.00,,,0.00,VWS V14.00,2013-06-13 13:17:00,
2013-06-13 09:22:00,80.4,75.8,30.03,NNW,342,4.0,4.0,86,0.00,,,0.00,VWS V14.00,2013-06-13 13:22:00,
2013-06-13 09:27:00,80.6,76.0,30.03,WSW,251,2.0,6.0,86,0.00,,,0.00,VWS V14.00,2013-06-13 13:27:00,
2013-06-13 09:30:00,77.4,73.9,30.03,SW,221,0.0,5.0,89,0.00,,,0.00,VWS V14.00,2013-06-13 13:30:00,
2013-06-13 09:32:00,81.0,76.4,30.03,NW,306,4.0,4.0,86,0.00,,,0.00,VWS V14.00,2013-06-13 13:32:00,
2013-06-13 09:38:00,81.2,76.3,30.03,North,5,0.0,5.0,85,0.00,,,0.00,VWS V14.00,2013-06-13 13:38:00,
2013-06-13 09:43:00,81.5,76.6,30.03,WNW,301,0.0,5.0,85,0.00,,,0.00,VWS V14.00,2013-06-13 13:43:00,
2013-06-13 09:48:00,81.6,75.9,30.03,SW,221,0.0,6.0,83,0.00,,,0.00,VWS V14.00,2013-06-13 13:48:00,
2013-06-13 09:53:00,81.8,76.1,30.03,NNW,340,0.0,6.0,83,0.00,,,0.00,VWS V14.00,2013-06-13 13:53:00,
2013-06-13 09:58:00,82.2,75.8,30.02,SW,227,0.0,6.0,81,0.00,,,0.00,VWS V14.00,2013-06-13 13:58:00,
2013-06-13 10:00:00,79.1,75.2,30.03,West,262,0.0,5.0,88,0.00,,,0.00,VWS V14.00,2013-06-13 14:00:00,
2013-06-13 10:03:00,82.6,75.8,30.03,WSW,250,2.0,4.0,80,0.00,,,0.00,VWS V14.00,2013-06-13 14:03:00,
2013-06-13 10:08:00,82.9,75.3,30.03,South,170,3.0,4.0,78,0.00,,,0.00,VWS V14.00,2013-06-13 14:08:00,
2013-06-13 10:13:00,83.0,75.4,30.03,WSW,245,0.0,4.0,78,0.00,,,0.00,VWS V14.00,2013-06-13 14:13:00,
2013-06-13 10:18:00,83.4,75.4,30.03,SSW,211,0.0,5.0,77,0.00,,,0.00,VWS V14.00,2013-06-13 14:18:00,
2013-06-13 10:23:00,83.9,75.5,30.03,West,259,0.0,5.0,76,0.00,,,0.00,VWS V14.00,2013-06-13 14:23:00,
2013-06-13 10:28:00,84.4,74.8,30.03,SW,221,0.0,5.0,73,0.00,,,0.00,VWS V14.00,2013-06-13 14:28:00,
2013-06-13 10:30:00,80.9,76.3,30.03,SW,219,0.0,6.0,86,0.00,,,0.00,VWS V14.00,2013-06-13 14:30:00,
2013-06-13 10:33:00,84.8,74.4,30.03,SW,217,0.0,0.0,71,0.00,,,0.00,VWS V14.00,2013-06-13 14:33:00,
2013-06-13 10:38:00,85.1,75.1,30.03,South,173,0.0,4.0,72,0.00,,,0.00,VWS V14.00,2013-06-13 14:38:00,
2013-06-13 10:43:00,85.3,73.1,30.02,SW,223,4.0,5.0,67,0.00,,,0.00,VWS V14.00,2013-06-13 14:43:00,
2013-06-13 10:48:00,85.6,74.3,30.02,SW,215,1.0,6.0,69,0.00,,,0.00,VWS V14.00,2013-06-13 14:48:00,
2013-06-13 10:53:00,85.8,73.1,30.02,SW,221,0.0,9.0,66,0.00,,,0.00,VWS V14.00,2013-06-13 14:53:00,
2013-06-13 10:58:00,85.9,74.1,30.02,West,273,0.0,9.0,68,0.00,,,0.00,VWS V14.00,2013-06-13 14:58:00,
2013-06-13 11:00:00,82.4,75.6,30.03,North,351,0.0,6.0,80,0.00,,,0.00,VWS V14.00,2013-06-13 15:00:00,
2013-06-13 11:03:00,86.5,74.2,30.02,SSW,207,0.0,0.0,67,0.00,,,0.00,VWS V14.00,2013-06-13 15:03:00,
2013-06-13 11:08:00,87.1,75.3,30.02,SW,234,0.0,1.0,68,0.00,,,0.00,VWS V14.00,2013-06-13 15:08:00,
2013-06-13 11:13:00,87.8,75.5,30.02,SW,236,0.0,3.0,67,0.00,,,0.00,VWS V14.00,2013-06-13 15:13:00,
2013-06-13 11:18:00,87.8,75.0,30.02,NW,322,0.0,6.0,66,0.00,,,0.00,VWS V14.00,2013-06-13 15:18:00,
2013-06-13 11:23:00,88.2,74.5,30.02,SSW,203,0.0,6.0,64,0.00,,,0.00,VWS V14.00,2013-06-13 15:23:00,
2013-06-13 11:29:00,88.5,73.8,30.02,NNW,331,0.0,8.0,62,0.00,,,0.00,VWS V14.00,2013-06-13 15:29:00,
2013-06-13 11:30:00,84.7,74.7,30.03,SW,217,0.0,6.0,72,0.00,,,0.00,VWS V14.00,2013-06-13 15:30:00,
2013-06-13 11:34:00,88.4,73.7,30.02,West,263,0.0,0.0,62,0.00,,,0.00,VWS V14.00,2013-06-13 15:34:00,
2013-06-13 11:39:00,88.8,73.6,30.02,NW,326,0.0,5.0,61,0.00,,,0.00,VWS V14.00,2013-06-13 15:39:00,
2013-06-13 11:44:00,89.1,74.9,30.02,SW,234,1.0,5.0,63,0.00,,,0.00,VWS V14.00,2013-06-13 15:44:00,
2013-06-13 11:49:00,89.3,74.1,30.02,NW,321,0.0,5.0,61,0.00,,,0.00,VWS V14.00,2013-06-13 15:49:00,
2013-06-13 11:54:00,89.4,74.2,30.02,NW,317,0.0,6.0,61,0.00,,,0.00,VWS V14.00,2013-06-13 15:54:00,
2013-06-13 11:59:00,89.7,73.5,30.02,WSW,248,0.0,6.0,59,0.00,,,0.00,VWS V14.00,2013-06-13 15:59:00,
2013-06-13 12:00:00,86.3,74.5,30.02,NW,323,0.0,9.0,68,0.00,,,0.00,VWS V14.00,2013-06-13 16:00:00,
2013-06-13 12:04:00,89.5,73.8,30.01,SW,231,4.0,10.0,60,0.00,,,0.00,VWS V14.00,2013-06-13 16:04:00,
2013-06-13 12:09:00,89.5,73.8,30.01,WSW,238,5.0,10.0,60,0.00,,,0.00,VWS V14.00,2013-06-13 16:09:00,
2013-06-13 12:14:00,89.5,73.8,30.01,WSW,248,0.0,10.0,60,0.00,,,0.00,VWS V14.00,2013-06-13 16:14:00,
2013-06-13 12:19:00,89.6,73.9,30.01,SE,138,0.0,10.0,60,0.00,,,0.00,VWS V14.00,2013-06-13 16:19:00,
2013-06-13 12:24:00,90.2,74.4,30.01,SW,231,0.0,10.0,60,0.00,,,0.00,VWS V14.00,2013-06-13 16:24:00,
2013-06-13 12:29:00,90.6,75.3,30.01,SSW,213,0.0,10.0,61,0.00,,,0.00,VWS V14.00,2013-06-13 16:29:00,
2013-06-13 12:30:00,88.4,73.7,30.02,SW,215,0.0,8.0,62,0.00,,,0.00,VWS V14.00,2013-06-13 16:30:00,
2013-06-13 12:34:00,91.1,75.3,30.01,West,270,0.0,4.0,60,0.00,,,0.00,VWS V14.00,2013-06-13 16:34:00,
2013-06-13 12:39:00,91.4,75.1,30.00,SW,217,5.0,6.0,59,0.00,,,0.00,VWS V14.00,2013-06-13 16:39:00,
2013-06-13 12:44:00,91.0,75.2,30.00,SW,229,0.0,6.0,60,0.00,,,0.00,VWS V14.00,2013-06-13 16:44:00,
2013-06-13 12:49:00,91.3,75.0,30.00,WNW,296,0.0,6.0,59,0.00,,,0.00,VWS V14.00,2013-06-13 16:49:00,
2013-06-13 12:54:00,91.6,75.8,30.00,SW,234,0.0,6.0,60,0.00,,,0.00,VWS V14.00,2013-06-13 16:54:00,
2013-06-13 12:59:00,91.8,75.4,30.00,West,265,0.0,6.0,59,0.00,,,0.00,VWS V14.00,2013-06-13 16:59:00,
2013-06-13 13:00:00,89.5,72.8,30.02,SW,217,0.0,7.0,58,0.00,,,0.00,VWS V14.00,2013-06-13 17:00:00,
2013-06-13 13:04:00,92.4,76.5,30.00,NW,325,0.0,0.0,60,0.00,,,0.00,VWS V14.00,2013-06-13 17:04:00,
2013-06-13 13:09:00,92.7,75.2,29.99,SW,225,0.0,4.0,57,0.00,,,0.00,VWS V14.00,2013-06-13 17:09:00,
2013-06-13 13:15:00,92.6,75.2,29.99,NNW,328,0.0,7.0,57,0.00,,,0.00,VWS V14.00,2013-06-13 17:15:00,
2013-06-13 13:20:00,92.4,75.5,29.99,SW,222,0.0,7.0,58,0.00,,,0.00,VWS V14.00,2013-06-13 17:20:00,
2013-06-13 13:25:00,92.6,74.6,29.99,SW,227,0.0,7.0,56,0.00,,,0.00,VWS V14.00,2013-06-13 17:25:00,
2013-06-13 13:30:00,93.0,75.0,29.99,SW,226,0.0,7.0,56,0.00,,,0.00,VWS V14.00,2013-06-13 17:30:00,
2013-06-13 13:35:00,92.7,75.2,29.99,SSE,157,0.0,7.0,57,0.00,,,0.00,VWS V14.00,2013-06-13 17:35:00,
2013-06-13 13:40:00,92.9,75.4,29.98,SW,222,0.0,7.0,57,0.00,,,0.00,VWS V14.00,2013-06-13 17:40:00,
2013-06-13 13:45:00,93.2,75.2,29.98,SW,221,0.0,9.0,56,0.00,,,0.00,VWS V14.00,2013-06-13 17:45:00,
2013-06-13 13:50:00,93.1,74.6,29.98,NW,323,0.0,9.0,55,0.00,,,0.00,VWS V14.00,2013-06-13 17:50:00,
2013-06-13 13:55:00,93.3,74.7,29.98,WSW,249,4.0,9.0,55,0.00,,,0.00,VWS V14.00,2013-06-13 17:55:00,
2013-06-13 14:00:00,93.4,74.8,29.98,South,179,0.0,9.0,55,0.00,,,0.00,VWS V14.00,2013-06-13 18:00:00,
2013-06-13 14:05:00,92.8,74.3,29.97,SW,217,0.0,2.0,55,0.00,,,0.00,VWS V14.00,2013-06-13 18:05:00,
2013-06-13 14:10:00,92.5,74.5,29.97,NNW,335,0.0,4.0,56,0.00,,,0.00,VWS V14.00,2013-06-13 18:10:00,
2013-06-13 14:15:00,93.0,75.5,29.97,NW,321,0.0,6.0,57,0.00,,,0.00,VWS V14.00,2013-06-13 18:15:00,
2013-06-13 14:20:00,93.7,74.6,29.96,WSW,248,0.0,6.0,54,0.00,,,0.00,VWS V14.00,2013-06-13 18:20:00,
2013-06-13 14:25:00,94.0,75.4,29.96,South,191,0.0,7.0,55,0.00,,,0.00,VWS V14.00,2013-06-13 18:25:00,
2013-06-13 14:30:00,94.4,75.2,29.96,SW,234,0.0,7.0,54,0.00,,,0.00,VWS V14.00,2013-06-13 18:30:00,
2013-06-13 14:35:00,94.2,73.3,29.96,WNW,292,1.0,7.0,51,0.00,,,0.00,VWS V14.00,2013-06-13 18:35:00,
2013-06-13 14:40:00,94.2,74.5,29.95,SW,236,0.0,9.0,53,0.00,,,0.00,VWS V14.00,2013-06-13 18:40:00,
2013-06-13 14:45:00,94.1,73.2,29.95,SW,224,0.0,9.0,51,0.00,,,0.00,VWS V14.00,2013-06-13 18:45:00,
2013-06-13 14:50:00,94.1,74.4,29.95,South,177,0.0,9.0,53,0.00,,,0.00,VWS V14.00,2013-06-13 18:50:00,
2013-06-13 14:55:00,93.7,74.0,29.94,WSW,251,0.0,9.0,53,0.00,,,0.00,VWS V14.00,2013-06-13 18:55:00,
2013-06-13 15:00:00,93.7,74.0,29.94,WSW,239,0.0,9.0,53,0.00,,,0.00,VWS V14.00,2013-06-13 19:00:00,
2013-06-13 15:05:00,94.5,75.3,29.94,West,268,0.0,1.0,54,0.00,,,0.00,VWS V14.00,2013-06-13 19:05:00,
2013-06-13 15:10:00,94.9,73.9,29.94,North,9,0.0,4.0,51,0.00,,,0.00,VWS V14.00,2013-06-13 19:10:00,
2013-06-13 15:15:00,94.8,75.0,29.93,NW,326,0.0,7.0,53,0.00,,,0.00,VWS V14.00,2013-06-13 19:15:00,
2013-06-13 15:21:00,95.1,75.3,29.93,SW,236,0.0,8.0,53,0.00,,,0.00,VWS V14.00,2013-06-13 19:21:00,
2013-06-13 15:26:00,95.2,74.8,29.93,SSW,211,0.0,8.0,52,0.00,,,0.00,VWS V14.00,2013-06-13 19:26:00,
2013-06-13 15:30:00,94.3,74.6,29.96,SSE,165,2.0,7.0,53,0.00,,,0.00,VWS V14.00,2013-06-13 19:30:00,
2013-06-13 15:31:00,95.2,74.8,29.93,South,191,0.0,8.0,52,0.00,,,0.00,VWS V14.00,2013-06-13 19:31:00,
2013-06-13 15:36:00,95.6,74.6,29.92,SSW,193,0.0,7.0,51,0.00,,,0.00,VWS V14.00,2013-06-13 19:36:00,
2013-06-13 15:41:00,95.3,74.3,29.92,WSW,246,0.0,7.0,51,0.00,,,0.00,VWS V14.00,2013-06-13 19:41:00,
2013-06-13 15:46:00,95.4,74.4,29.92,WSW,238,0.0,7.0,51,0.00,,,0.00,VWS V14.00,2013-06-13 19:46:00,
2013-06-13 15:51:00,95.5,73.3,29.92,West,260,0.0,7.0,49,0.00,,,0.00,VWS V14.00,2013-06-13 19:51:00,
2013-06-13 15:56:00,95.6,74.0,29.92,West,273,0.0,7.0,50,0.00,,,0.00,VWS V14.00,2013-06-13 19:56:00,
2013-06-13 16:00:00,93.8,74.7,29.94,WSW,239,0.0,9.0,54,0.00,,,0.00,VWS V14.00,2013-06-13 20:00:00,
2013-06-13 16:01:00,95.8,74.8,29.92,SSW,209,0.0,9.0,51,0.00,,,0.00,VWS V14.00,2013-06-13 20:01:00,
2013-06-13 16:06:00,95.7,74.1,29.92,SW,218,4.0,5.0,50,0.00,,,0.00,VWS V14.00,2013-06-13 20:06:00,
2013-06-13 16:11:00,95.5,74.5,29.91,SSW,207,0.0,6.0,51,0.00,,,0.00,VWS V14.00,2013-06-13 20:11:00,
2013-06-13 16:16:00,95.7,74.7,29.91,NW,317,1.0,6.0,51,0.00,,,0.00,VWS V14.00,2013-06-13 20:16:00,
2013-06-13 16:21:00,95.7,75.3,29.91,SW,227,0.0,6.0,52,0.00,,,0.00,VWS V14.00,2013-06-13 20:21:00,
2013-06-13 16:26:00,95.6,75.2,29.91,NW,319,0.0,6.0,52,0.00,,,0.00,VWS V14.00,2013-06-13 20:26:00,
2013-06-13 16:30:00,95.3,75.5,29.93,South,191,0.0,8.0,53,0.00,,,0.00,VWS V14.00,2013-06-13 20:30:00,
2013-06-13 16:31:00,95.6,74.0,29.91,SSW,210,0.0,7.0,50,0.00,,,0.00,VWS V14.00,2013-06-13 20:31:00,
2013-06-13 16:36:00,95.6,73.4,29.91,SW,220,0.0,5.0,49,0.00,,,0.00,VWS V14.00,2013-06-13 20:36:00,
2013-06-13 16:41:00,95.6,73.4,29.90,NNW,336,0.0,5.0,49,0.00,,,0.00,VWS V14.00,2013-06-13 20:41:00,
2013-06-13 16:46:00,95.5,73.3,29.91,WNW,294,0.0,9.0,49,0.00,,,0.00,VWS V14.00,2013-06-13 20:46:00,
2013-06-13 16:51:00,95.4,73.2,29.91,SSW,213,0.0,9.0,49,0.00,,,0.00,VWS V14.00,2013-06-13 20:51:00,
2013-06-13 16:56:00,95.7,74.1,29.91,SSW,205,2.0,9.0,50,0.00,,,0.00,VWS V14.00,2013-06-13 20:56:00,
2013-06-13 17:00:00,95.8,74.8,29.92,SSW,205,0.0,9.0,51,0.00,,,0.00,VWS V14.00,2013-06-13 21:00:00,
2013-06-13 17:01:00,95.9,74.9,29.90,WSW,238,0.0,9.0,51,0.00,,,0.00,VWS V14.00,2013-06-13 21:01:00,
2013-06-13 17:07:00,96.1,74.5,29.90,WNW,295,0.0,6.0,50,0.00,,,0.00,VWS V14.00,2013-06-13 21:07:00,
2013-06-13 17:12:00,96.2,72.7,29.91,WSW,238,0.0,6.0,47,0.00,,,0.00,VWS V14.00,2013-06-13 21:12:00,
2013-06-13 17:17:00,95.6,72.8,29.90,South,182,0.0,6.0,48,0.00,,,0.00,VWS V14.00,2013-06-13 21:17:00,
2013-06-13 17:22:00,95.3,73.1,29.90,NW,318,0.0,6.0,49,0.00,,,0.00,VWS V14.00,2013-06-13 21:22:00,
2013-06-13 17:27:00,95.3,73.7,29.91,North,355,0.0,7.0,50,0.00,,,0.00,VWS V14.00,2013-06-13 21:27:00,
2013-06-13 17:30:00,95.6,74.0,29.91,SSW,210,0.0,7.0,50,0.00,,,0.00,VWS V14.00,2013-06-13 21:30:00,
2013-06-13 17:32:00,94.7,72.6,29.91,SW,232,0.0,2.0,49,0.00,,,0.00,VWS V14.00,2013-06-13 21:32:00,
2013-06-13 17:37:00,94.3,72.8,29.90,SW,232,0.0,4.0,50,0.00,,,0.00,VWS V14.00,2013-06-13 21:37:00,
2013-06-13 17:42:00,94.3,73.4,29.90,SSW,207,0.0,6.0,51,0.00,,,0.00,VWS V14.00,2013-06-13 21:42:00,
2013-06-13 17:47:00,94.4,73.5,29.90,WSW,254,0.0,6.0,51,0.00,,,0.00,VWS V14.00,2013-06-13 21:47:00,
2013-06-13 17:52:00,94.5,74.2,29.90,SSW,200,0.0,6.0,52,0.00,,,0.00,VWS V14.00,2013-06-13 21:52:00,
2013-06-13 17:57:00,94.2,73.9,29.89,SSW,194,0.0,10.0,52,0.00,,,0.00,VWS V14.00,2013-06-13 21:57:00,
2013-06-13 18:00:00,95.9,74.9,29.90,WSW,238,0.0,9.0,51,0.00,,,0.00,VWS V14.00,2013-06-13 22:00:00,
2013-06-13 18:02:00,93.7,74.6,29.89,SSW,211,0.0,0.0,54,0.00,,,0.00,VWS V14.00,2013-06-13 22:02:00,
2013-06-13 18:07:00,93.2,74.1,29.89,SSW,211,0.0,10.0,54,0.00,,,0.00,VWS V14.00,2013-06-13 22:07:00,
2013-06-13 18:12:00,93.1,74.0,29.89,SW,234,0.0,10.0,54,0.00,,,0.00,VWS V14.00,2013-06-13 22:12:00,
2013-06-13 18:17:00,92.9,73.8,29.89,South,186,0.0,10.0,54,0.00,,,0.00,VWS V14.00,2013-06-13 22:17:00,
2013-06-13 18:22:00,92.6,74.1,29.89,SW,223,0.0,11.0,55,0.00,,,0.00,VWS V14.00,2013-06-13 22:22:00,
2013-06-13 18:27:00,92.4,73.9,29.89,WSW,240,0.0,11.0,55,0.00,,,0.00,VWS V14.00,2013-06-13 22:27:00,
2013-06-13 18:30:00,94.7,73.2,29.91,WSW,257,0.0,7.0,50,0.00,,,0.00,VWS V14.00,2013-06-13 22:30:00,
2013-06-13 18:32:00,92.4,73.9,29.89,SW,217,7.0,7.0,55,0.00,,,0.00,VWS V14.00,2013-06-13 22:32:00,
2013-06-13 18:37:00,92.2,73.2,29.89,SW,223,0.0,7.0,54,0.00,,,0.00,VWS V14.00,2013-06-13 22:37:00,
2013-06-13 18:43:00,91.8,73.3,29.89,South,169,0.0,7.0,55,0.00,,,0.00,VWS V14.00,2013-06-13 22:43:00,
2013-06-13 18:48:00,91.5,73.1,29.89,SSW,213,0.0,7.0,55,0.00,,,0.00,VWS V14.00,2013-06-13 22:48:00,
2013-06-13 18:53:00,91.4,73.5,29.89,South,178,0.0,7.0,56,0.00,,,0.00,VWS V14.00,2013-06-13 22:53:00,
2013-06-13 18:58:00,91.3,75.0,29.89,SW,233,0.0,7.0,59,0.00,,,0.00,VWS V14.00,2013-06-13 22:58:00,
2013-06-13 19:00:00,93.8,74.1,29.89,SW,223,0.0,10.0,53,0.00,,,0.00,VWS V14.00,2013-06-13 23:00:00,
2013-06-13 19:03:00,89.9,74.7,29.90,SW,223,0.0,1.0,61,0.00,,,0.00,VWS V14.00,2013-06-13 23:03:00,
2013-06-13 19:08:00,89.0,74.8,29.89,WSW,238,0.0,2.0,63,0.00,,,0.00,VWS V14.00,2013-06-13 23:08:00,
2013-06-13 19:13:00,87.9,74.2,29.89,South,183,0.0,5.0,64,0.00,,,0.00,VWS V14.00,2013-06-13 23:13:00,
2013-06-13 19:18:00,87.2,74.0,29.89,SW,221,0.0,5.0,65,0.00,,,0.00,VWS V14.00,2013-06-13 23:18:00,
2013-06-13 19:23:00,86.9,74.2,29.89,SSW,195,0.0,5.0,66,0.00,,,0.00,VWS V14.00,2013-06-13 23:23:00,
2013-06-13 19:28:00,86.6,73.9,29.89,SW,221,0.0,5.0,66,0.00,,,0.00,VWS V14.00,2013-06-13 23:28:00,
2013-06-13 19:30:00,92.4,73.9,29.88,SSW,213,0.0,11.0,55,0.00,,,0.00,VWS V14.00,2013-06-13 23:30:00,
2013-06-13 19:33:00,86.3,74.1,29.89,SSW,195,0.0,0.0,67,0.00,,,0.00,VWS V14.00,2013-06-13 23:33:00,
2013-06-13 19:38:00,86.1,74.3,29.89,SSW,211,0.0,0.0,68,0.00,,,0.00,VWS V14.00,2013-06-13 23:38:00,
2013-06-13 19:43:00,85.9,74.1,29.89,SW,223,0.0,4.0,68,0.00,,,0.00,VWS V14.00,2013-06-13 23:43:00,
2013-06-13 19:48:00,85.5,73.7,29.89,WSW,242,0.0,7.0,68,0.00,,,0.00,VWS V14.00,2013-06-13 23:48:00,
2013-06-13 19:53:00,85.2,73.4,29.90,WSW,258,0.0,7.0,68,0.00,,,0.00,VWS V14.00,2013-06-13 23:53:00,
2013-06-13 19:58:00,84.9,73.6,29.89,SSE,156,0.0,7.0,69,0.00,,,0.00,VWS V14.00,2013-06-13 23:58:00,
2013-06-13 20:00:00,90.2,74.9,29.89,WSW,237,1.0,7.0,61,0.00,,,0.00,VWS V14.00,2013-06-14 00:00:00,
2013-06-13 20:03:00,84.7,73.4,29.89,SSW,196,0.0,0.0,69,0.00,,,0.00,VWS V14.00,2013-06-14 00:03:00,
2013-06-13 20:08:00,84.5,73.7,29.89,WSW,243,0.0,0.0,70,0.00,,,0.00,VWS V14.00,2013-06-14 00:08:00,
2013-06-13 20:13:00,84.4,73.6,29.89,WSW,242,0.0,1.0,70,0.00,,,0.00,VWS V14.00,2013-06-14 00:13:00,
2013-06-13 20:18:00,84.2,73.4,29.90,South,189,0.0,1.0,70,0.00,,,0.00,VWS V14.00,2013-06-14 00:18:00,
2013-06-13 20:23:00,84.1,73.3,29.90,SSE,163,0.0,2.0,70,0.00,,,0.00,VWS V14.00,2013-06-14 00:23:00,
2013-06-13 20:28:00,83.9,73.5,29.90,SW,231,0.0,2.0,71,0.00,,,0.00,VWS V14.00,2013-06-14 00:28:00,
2013-06-13 20:30:00,86.4,74.2,29.89,South,179,0.0,6.0,67,0.00,,,0.00,VWS V14.00,2013-06-14 00:30:00,
2013-06-13 20:33:00,83.8,73.4,29.90,SW,230,0.0,0.0,71,0.00,,,0.00,VWS V14.00,2013-06-14 00:33:00,
2013-06-13 20:39:00,83.6,73.6,29.90,SW,231,0.0,0.0,72,0.00,,,0.00,VWS V14.00,2013-06-14 00:39:00,
2013-06-13 20:44:00,83.5,73.5,29.90,SW,230,0.0,0.0,72,0.00,,,0.00,VWS V14.00,2013-06-14 00:44:00,
2013-06-13 20:49:00,83.4,73.8,29.90,SW,230,0.0,0.0,73,0.00,,,0.00,VWS V14.00,2013-06-14 00:49:00,
2013-06-13 20:54:00,83.2,73.7,29.90,SW,231,0.0,0.0,73,0.00,,,0.00,VWS V14.00,2013-06-14 00:54:00,
2013-06-13 20:59:00,83.1,74.0,29.90,SW,231,0.0,0.0,74,0.00,,,0.00,VWS V14.00,2013-06-14 00:59:00,
2013-06-13 21:00:00,84.7,73.4,29.89,SSW,208,0.0,7.0,69,0.00,,,0.00,VWS V14.00,2013-06-14 01:00:00,
2013-06-13 21:04:00,83.1,74.0,29.90,SW,230,0.0,0.0,74,0.00,,,0.00,VWS V14.00,2013-06-14 01:04:00,
2013-06-13 21:09:00,83.0,73.9,29.90,SW,231,0.0,0.0,74,0.00,,,0.00,VWS V14.00,2013-06-14 01:09:00,
2013-06-13 21:14:00,82.9,73.8,29.90,SW,231,0.0,0.0,74,0.00,,,0.00,VWS V14.00,2013-06-14 01:14:00,
2013-06-13 21:19:00,82.8,74.1,29.90,SW,231,0.0,0.0,75,0.00,,,0.00,VWS V14.00,2013-06-14 01:19:00,
2013-06-13 21:24:00,82.6,74.3,29.91,SW,230,0.0,0.0,76,0.00,,,0.00,VWS V14.00,2013-06-14 01:24:00,
2013-06-13 21:29:00,82.3,74.0,29.91,SW,230,0.0,0.0,76,0.00,,,0.00,VWS V14.00,2013-06-14 01:29:00,
2013-06-13 21:30:00,83.9,73.5,29.90,SW,231,0.0,2.0,71,0.00,,,0.00,VWS V14.00,2013-06-14 01:30:00,
2013-06-13 21:34:00,81.8,73.9,29.91,SW,230,0.0,0.0,77,0.00,,,0.00,VWS V14.00,2013-06-14 01:34:00,
2013-06-13 21:39:00,81.4,73.9,29.90,SW,231,0.0,0.0,78,0.00,,,0.00,VWS V14.00,2013-06-14 01:39:00,
2013-06-13 21:44:00,81.0,73.9,29.91,SW,230,0.0,0.0,79,0.00,,,0.00,VWS V14.00,2013-06-14 01:44:00,
2013-06-13 21:49:00,80.7,73.6,29.90,SW,231,0.0,0.0,79,0.00,,,0.00,VWS V14.00,2013-06-14 01:49:00,
2013-06-13 21:54:00,80.5,73.8,29.91,SW,231,0.0,0.0,80,0.00,,,0.00,VWS V14.00,2013-06-14 01:54:00,
2013-06-13 21:59:00,80.5,73.8,29.91,SW,231,0.0,0.0,80,0.00,,,0.00,VWS V14.00,2013-06-14 01:59:00,
2013-06-13 22:00:00,83.1,74.0,29.90,SW,230,0.0,0.0,74,0.00,,,0.00,VWS V14.00,2013-06-14 02:00:00,
2013-06-13 22:04:00,80.7,74.0,29.91,SW,231,0.0,0.0,80,0.00,,,0.00,VWS V14.00,2013-06-14 02:04:00,
2013-06-13 22:09:00,80.8,74.1,29.91,SW,231,0.0,0.0,80,0.00,,,0.00,VWS V14.00,2013-06-14 02:09:00,
2013-06-13 22:14:00,80.7,74.0,29.91,SW,231,0.0,0.0,80,0.00,,,0.00,VWS V14.00,2013-06-14 02:14:00,
2013-06-13 22:19:00,80.6,73.9,29.91,SW,231,0.0,0.0,80,0.00,,,0.00,VWS V14.00,2013-06-14 02:19:00,
2013-06-13 22:24:00,80.5,73.8,29.92,SW,230,0.0,0.0,80,0.00,,,0.00,VWS V14.00,2013-06-14 02:24:00,
2013-06-13 22:29:00,80.3,73.9,29.92,SW,231,0.0,0.0,81,0.00,,,0.00,VWS V14.00,2013-06-14 02:29:00,
2013-06-13 22:30:00,82.1,74.2,29.91,SW,231,0.0,0.0,77,0.00,,,0.00,VWS V14.00,2013-06-14 02:30:00,
2013-06-13 22:35:00,80.1,73.8,29.92,SW,231,0.0,0.0,81,0.00,,,0.00,VWS V14.00,2013-06-14 02:35:00,
2013-06-13 22:40:00,80.1,73.8,29.92,SW,227,0.0,0.0,81,0.00,,,0.00,VWS V14.00,2013-06-14 02:40:00,
2013-06-13 22:45:00,80.2,73.5,29.92,SW,215,0.0,1.0,80,0.00,,,0.00,VWS V14.00,2013-06-14 02:45:00,
2013-06-13 22:50:00,80.3,73.6,29.92,SW,218,0.0,1.0,80,0.00,,,0.00,VWS V14.00,2013-06-14 02:50:00,
2013-06-13 22:55:00,80.2,73.5,29.93,SW,218,0.0,1.0,80,0.00,,,0.00,VWS V14.00,2013-06-14 02:55:00,
2013-06-13 23:00:00,80.0,73.3,29.93,NW,311,0.0,1.0,80,0.00,,,0.00,VWS V14.00,2013-06-14 03:00:00,
2013-06-13 23:05:00,80.0,73.3,29.93,NW,311,0.0,0.0,80,0.00,,,0.00,VWS V14.00,2013-06-14 03:05:00,
2013-06-13 23:10:00,79.8,73.1,29.93,NW,311,0.0,0.0,80,0.00,,,0.00,VWS V14.00,2013-06-14 03:10:00,
2013-06-13 23:15:00,79.6,73.3,29.94,NW,311,0.0,0.0,81,0.00,,,0.00,VWS V14.00,2013-06-14 03:15:00,
2013-06-13 23:20:00,79.4,73.1,29.94,NW,311,0.0,0.0,81,0.00,,,0.00,VWS V14.00,2013-06-14 03:20:00,
2013-06-13 23:25:00,79.2,73.2,29.93,NW,311,0.0,0.0,82,0.00,,,0.00,VWS V14.00,2013-06-14 03:25:00,
2013-06-13 23:30:00,79.0,73.0,29.93,NW,311,0.0,0.0,82,0.00,,,0.00,VWS V14.00,2013-06-14 03:30:00,
2013-06-13 23:35:00,78.8,72.8,29.93,NW,311,0.0,0.0,82,0.00,,,0.00,VWS V14.00,2013-06-14 03:35:00,
2013-06-13 23:40:00,78.7,72.8,29.93,NW,311,0.0,0.0,82,0.00,,,0.00,VWS V14.00,2013-06-14 03:40:00,
2013-06-13 23:45:00,78.6,73.0,29.93,NW,311,0.0,0.0,83,0.00,,,0.00,VWS V14.00,2013-06-14 03:45:00,
2013-06-13 23:50:00,78.4,72.8,29.93,NW,311,0.0,0.0,83,0.00,,,0.00,VWS V14.00,2013-06-14 03:50:00,
2013-06-13 23:55:00,78.2,73.0,29.93,NW,311,0.0,0.0,84,0.00,,,0.00,VWS V14.00,2013-06-14 03:55:00,